EW4784 Weather Reports


Display with metric or nautical units.
time (UTC)temp
F
wind
direction
speed
MPH
gust
MPH
rain 1hr
in
rain 24hr
in
rain mn
in
humidity
%
barometer
mb
20260901043456 75 278 1.0 8.0 0.00 0.02 0.00 86 1014.6
20260901043016 75 274 1.0 5.0 0.00 0.02 0.00 86 1014.7
20260901042454 75 271 1.0 4.0 0.00 0.02 0.00 86 1014.7
20260901042014 75 314 1.0 7.0 0.00 0.02 0.00 86 1014.7
20260901041452 75 302 1.0 7.0 0.00 0.02 0.00 86 1014.7
20260901040950 75 308 1.0 9.0 0.00 0.02 0.00 86 1014.6
20260901040449 75 271 2.0 8.0 0.00 0.02 0.00 86 1014.5
20260901035948 75 190 1.0 11.0 0.00 0.02 0.02 86 1014.5
20260901035447 75 287 1.0 8.0 0.00 0.02 0.02 86 1014.6
20260901034946 75 286 1.0 7.0 0.00 0.02 0.02 86 1014.6
20260901034507 74 275 1.0 7.0 0.00 0.02 0.02 86 1014.7
20260901033945 74 278 1.0 5.0 0.00 0.02 0.02 86 1014.8
20260901033443 74 273 1.0 8.0 0.00 0.02 0.02 85 1014.9
20260901033003 74 279 3.0 14.0 0.00 0.02 0.02 85 1014.9
20260901032441 74 277 0.0 4.0 0.00 0.02 0.02 85 1014.8
20260901031941 74 265 0.0 7.0 0.00 0.02 0.02 85 1014.7
20260901031440 74 257 2.0 9.0 0.00 0.02 0.02 85 1014.8
20260901030938 74 255 1.0 6.0 0.00 0.02 0.02 84 1014.9
20260901030458 74 256 1.0 10.0 0.00 0.02 0.02 84 1014.9
20260901025937 74 266 1.0 8.0 0.00 0.02 0.02 84 1014.9
20260901025435 74 268 0.0 9.0 0.00 0.02 0.02 83 1014.9
20260901024934 75 260 1.0 9.0 0.00 0.02 0.02 83 1014.9
20260901024434 75 200 0.0 2.0 0.00 0.02 0.02 82 1014.9
20260901023932 75 215 1.0 4.0 0.00 0.02 0.02 82 1014.9
20260901023431 75 222 0.0 1.0 0.00 0.02 0.02 82 1014.9
20260901022952 75 243 0.0 4.0 0.00 0.02 0.02 81 1014.9
20260901022429 75 237 1.0 8.0 0.00 0.02 0.02 81 1014.9
20260901021928 75 275 1.0 8.0 0.00 0.02 0.02 80 1014.9
20260901021427 75 213 1.0 6.0 0.00 0.02 0.02 80 1014.9
20260901020926 75 160 0.0 0.0 0.00 0.02 0.02 79 1014.9
20260901020425 75 205 0.0 7.0 0.00 0.02 0.02 79 1015.0
20260901015945 75 228 0.0 6.0 0.00 0.02 0.02 79 1015.0
20260901015423 75 272 0.0 5.0 0.00 0.02 0.02 79 1015.1
20260901014923 75 193 1.0 7.0 0.00 0.02 0.02 78 1015.0
20260901014421 75 223 1.0 12.0 0.00 0.02 0.02 78 1015.0
20260901013920 75 236 1.0 9.0 0.00 0.02 0.02 78 1014.9
20260901013419 75 195 1.0 11.0 0.00 0.02 0.02 78 1014.8
20260901012939 75 191 3.0 13.0 0.00 0.02 0.02 78 1014.7
20260901012417 75 209 0.0 4.0 0.00 0.02 0.02 78 1014.8
20260901011916 75 188 2.0 10.0 0.00 0.02 0.02 77 1014.8
20260901011415 74 197 2.0 11.0 0.00 0.02 0.02 78 1014.8
20260901010914 74 182 0.0 4.0 0.00 0.02 0.02 79 1014.8
20260901010413 73 229 3.0 12.0 0.00 0.02 0.02 81 1014.8
20260901005912 73 249 2.0 10.0 0.00 0.02 0.02 83 1014.7
20260901005411 73 280 0.0 6.0 0.00 0.02 0.02 84 1014.6
20260901004911 73 194 0.0 6.0 0.00 0.02 0.02 85 1014.5
20260901004409 73 221 0.0 1.0 0.00 0.02 0.02 85 1014.5
20260901003929 73 176 0.0 0.0 0.00 0.02 0.02 85 1014.5
20260901003407 73 176 0.0 2.0 0.00 0.02 0.02 85 1014.3
20260901002906 73 184 0.0 8.0 0.00 0.02 0.02 86 1014.3
20260901002426 73 189 0.0 6.0 0.00 0.02 0.02 86 1014.3
20260901001904 73 187 0.0 6.0 0.00 0.02 0.02 86 1014.2
20260901001403 73 179 0.0 4.0 0.00 0.02 0.02 86 1014.2
20260901000902 73 183 1.0 5.0 0.00 0.02 0.02 87 1014.3
20260901000422 73 188 1.0 6.0 0.00 0.02 0.02 87 1014.3
20260831235900 73 178 1.0 5.0 0.00 0.02 0.02 88 1014.3
20260831235358 73 184 1.0 9.0 0.00 0.02 0.02 88 1014.3
20260831234858 74 178 1.0 9.0 0.00 0.02 0.02 88 1014.3
20260831234357 74 181 0.0 4.0 0.00 0.02 0.02 88 1014.3
20260831233917 74 179 1.0 7.0 0.00 0.02 0.02 88 1014.4
20260831233355 74 176 1.0 6.0 0.00 0.02 0.02 88 1014.3
20260831232854 74 166 0.0 4.0 0.00 0.02 0.02 88 1014.4
20260831232353 74 184 1.0 8.0 0.00 0.02 0.02 88 1014.4
20260831231913 74 176 1.0 10.0 0.00 0.02 0.02 88 1014.4
20260831231412 74 183 3.0 9.0 0.00 0.02 0.02 88 1014.4
20260831230850 74 185 2.0 10.0 0.00 0.02 0.02 88 1014.6
20260831230349 75 182 1.0 9.0 0.00 0.02 0.02 88 1014.6
20260831225848 75 176 1.0 7.0 0.00 0.02 0.02 88 1014.7
20260831225346 75 177 1.0 9.0 0.00 0.02 0.02 88 1014.7
20260831224846 75 192 0.0 7.0 0.00 0.02 0.02 88 1014.7
20260831224344 75 179 6.0 18.0 0.01 0.02 0.02 88 1014.6
20260831223843 75 177 5.0 21.0 0.01 0.02 0.02 87 1014.8
20260831223343 75 169 3.0 13.0 0.01 0.02 0.02 87 1014.9
20260831222842 75 187 4.0 8.0 0.01 0.02 0.02 87 1015.1
20260831222341 75 182 2.0 10.0 0.01 0.02 0.02 86 1015.5
20260831221840 75 179 0.0 6.0 0.01 0.02 0.02 86 1015.8
20260831221400 75 274 0.0 6.0 0.01 0.02 0.02 85 1015.5
20260831220838 75 188 2.0 9.0 0.01 0.02 0.02 84 1015.4
20260831220337 75 232 2.0 9.0 0.01 0.02 0.02 84 1015.5
20260831215836 75 196 3.0 14.0 0.01 0.02 0.02 84 1015.4
20260831215334 75 196 0.0 4.0 0.01 0.02 0.02 84 1015.4
20260831214834 76 192 2.0 8.0 0.01 0.02 0.02 83 1015.5
20260831214332 76 166 1.0 5.0 0.00 0.01 0.01 82 1015.5
20260831213832 77 176 2.0 12.0 0.00 0.01 0.01 80 1015.6
20260831213330 77 209 1.0 6.0 0.00 0.02 0.01 78 1016.0
20260831212830 78 233 2.0 12.0 0.00 0.02 0.01 76 1016.0
20260831212329 78 288 4.0 19.0 0.00 0.02 0.01 76 1015.9
20260831211827 78 237 6.0 21.0 0.00 0.02 0.01 76 1016.0
20260831211327 79 232 2.0 10.0 0.00 0.02 0.01 77 1015.9
20260831210826 79 181 1.0 8.0 0.00 0.02 0.01 75 1015.7
20260831210324 79 179 1.0 10.0 0.00 0.02 0.01 74 1015.6
20260831205823 80 188 1.0 6.0 0.00 0.02 0.01 73 1015.6
20260831205322 80 183 3.0 11.0 0.00 0.02 0.01 72 1015.6
20260831204842 80 185 4.0 12.0 0.00 0.02 0.01 72 1015.5
20260831204321 80 173 4.0 9.0 0.00 0.02 0.01 70 1015.6
20260831203820 81 178 2.0 7.0 0.00 0.02 0.01 71 1015.8
20260831203318 81 182 3.0 11.0 0.00 0.02 0.01 70 1015.9
20260831202838 81 179 2.0 8.0 0.00 0.02 0.01 69 1015.9
20260831202316 82 177 3.0 12.0 0.00 0.02 0.01 68 1015.8
20260831201815 82 188 5.0 12.0 0.00 0.02 0.01 67 1015.7
20260831201315 82 167 5.0 11.0 0.00 0.02 0.01 68 1015.6
20260831200813 82 172 6.0 15.0 0.00 0.02 0.01 67 1015.5
20260831200334 82 172 5.0 13.0 0.00 0.02 0.01 67 1015.6
20260831195811 82 174 6.0 15.0 0.00 0.02 0.01 69 1015.7
20260831195331 82 186 2.0 7.0 0.00 0.02 0.01 70 1015.9
20260831194809 82 186 2.0 8.0 0.00 0.02 0.01 69 1015.9
20260831194308 82 156 1.0 5.0 0.00 0.02 0.01 69 1016.0
20260831193808 82 154 0.0 5.0 0.00 0.02 0.01 69 1016.0
20260831193306 83 158 1.0 7.0 0.00 0.02 0.01 69 1016.1
20260831192827 82 180 0.0 0.0 0.00 0.02 0.01 69 1016.2
20260831192305 82 174 0.0 3.0 0.00 0.02 0.01 72 1016.2
20260831191804 82 180 0.0 1.0 0.00 0.02 0.01 71 1016.2
20260831191302 82 163 1.0 5.0 0.00 0.02 0.01 69 1016.3
20260831190801 83 147 0.0 0.0 0.00 0.02 0.01 67 1016.4
20260831190300 83 145 0.0 2.0 0.00 0.02 0.01 66 1016.2
20260831185759 84 156 1.0 8.0 0.00 0.02 0.01 65 1015.9
20260831185319 84 170 1.0 7.0 0.00 0.02 0.01 64 1015.9
20260831184757 85 187 1.0 7.0 0.00 0.02 0.01 61 1015.9
20260831184256 86 238 2.0 10.0 0.00 0.02 0.01 60 1015.9
20260831183755 85 260 2.0 12.0 0.00 0.02 0.01 62 1015.9
20260831183316 85 196 2.0 8.0 0.00 0.02 0.01 66 1015.9
20260831182753 85 244 1.0 9.0 0.00 0.02 0.01 67 1016.0
20260831182253 86 188 3.0 12.0 0.00 0.02 0.01 65 1015.9
20260831181812 84 181 2.0 7.0 0.00 0.02 0.01 69 1016.0
20260831181250 83 208 1.0 7.0 0.00 0.02 0.01 70 1016.0
20260831180749 82 230 0.0 5.0 0.00 0.02 0.01 71 1016.2
20260831180249 81 183 0.0 2.0 0.00 0.02 0.01 74 1016.3
20260831175747 80 187 0.0 5.0 0.00 0.02 0.01 73 1016.4
20260831175307 81 182 1.0 6.0 0.00 0.02 0.01 73 1016.4
20260831174745 81 175 0.0 2.0 0.00 0.02 0.01 76 1016.4
20260831174244 81 174 2.0 8.0 0.00 0.02 0.01 74 1016.4
20260831173743 82 168 2.0 7.0 0.00 0.02 0.01 76 1016.4
20260831173242 81 167 1.0 6.0 0.00 0.02 0.01 81 1016.5
20260831172741 79 176 2.0 6.0 0.00 0.02 0.01 83 1016.7
20260831172240 78 160 0.0 0.0 0.00 0.02 0.01 88 1016.9
20260831171739 76 153 0.0 0.0 0.00 0.02 0.01 88 1017.0
20260831171239 76 153 0.0 0.0 0.00 0.02 0.01 89 1016.9
20260831170737 75 153 0.0 0.0 0.01 0.02 0.01 89 1017.0
20260831170236 75 143 0.0 0.0 0.01 0.02 0.01 90 1017.3
20260831165735 74 136 0.0 0.0 0.01 0.02 0.01 91 1017.5
20260831165234 74 135 0.0 2.0 0.01 0.02 0.01 91 1017.5
20260831164733 74 130 1.0 4.0 0.01 0.02 0.01 92 1017.5
20260831164232 74 95 0.0 4.0 0.01 0.02 0.01 92 1017.7
20260831163731 74 263 0.0 0.0 0.01 0.02 0.01 92 1018.1
20260831163230 74 263 0.0 0.0 0.01 0.02 0.01 91 1018.4
20260831162729 74 263 0.0 0.0 0.01 0.02 0.01 91 1018.5
20260831162228 74 263 0.0 1.0 0.01 0.03 0.01 89 1018.6
20260831161727 74 278 0.0 2.0 0.01 0.03 0.01 87 1018.6
20260831161226 75 285 0.0 5.0 0.01 0.03 0.01 85 1018.5
20260831160746 76 345 0.0 0.0 0.00 0.02 0.00 82 1018.4
20260831160224 76 308 2.0 15.0 0.00 0.02 0.00 79 1018.3
20260831155744 77 301 3.0 10.0 0.00 0.02 0.00 77 1018.3
20260831155222 77 285 2.0 7.0 0.00 0.02 0.00 78 1018.0
20260831154741 77 307 1.0 5.0 0.00 0.02 0.00 78 1017.9
20260831154221 77 308 1.0 8.0 0.00 0.02 0.00 77 1017.9
20260831153719 77 305 5.0 12.0 0.00 0.02 0.00 77 1017.9
20260831153238 77 295 5.0 11.0 0.00 0.02 0.00 77 1017.9
20260831152717 77 284 1.0 11.0 0.00 0.02 0.00 78 1017.9
20260831152215 77 277 3.0 16.0 0.00 0.02 0.00 78 1017.9
20260831151715 77 296 4.0 10.0 0.00 0.02 0.00 79 1017.8
20260831151213 76 284 3.0 13.0 0.00 0.03 0.00 80 1017.8
20260831150713 76 307 1.0 15.0 0.00 0.03 0.00 81 1017.7
20260831150232 76 308 2.0 11.0 0.00 0.03 0.00 81 1017.7
20260831145712 76 316 6.0 13.0 0.00 0.04 0.00 81 1017.6
20260831145210 76 318 3.0 12.0 0.00 0.05 0.00 80 1017.5
20260831144708 76 310 4.0 12.0 0.00 0.06 0.00 79 1017.3
20260831144208 76 297 3.0 9.0 0.00 0.07 0.00 80 1017.1
20260831143707 76 290 1.0 10.0 0.00 0.08 0.00 80 1017.1
20260831143207 76 293 3.0 10.0 0.00 0.10 0.00 80 1017.2
20260831142705 76 293 2.0 7.0 0.00 0.11 0.00 80 1017.1
20260831142204 76 276 3.0 10.0 0.00 0.12 0.00 80 1017.1
20260831141702 76 284 5.0 13.0 0.00 0.13 0.00 80 1017.1
20260831141202 76 308 2.0 10.0 0.00 0.13 0.00 81 1017.3
20260831140722 76 276 1.0 6.0 0.00 0.15 0.00 81 1017.3
20260831140200 76 300 1.0 5.0 0.00 0.15 0.00 81 1017.3
20260831135659 75 286 3.0 8.0 0.00 0.16 0.00 82 1017.2
20260831135158 76 252 0.0 5.0 0.00 0.17 0.00 82 1017.1
20260831134718 75 253 0.0 3.0 0.00 0.19 0.00 82 1017.1
20260831134155 75 278 0.0 4.0 0.00 0.20 0.00 82 1017.1
20260831133655 75 312 0.0 4.0 0.00 0.21 0.00 83 1017.0
20260831133153 75 288 1.0 6.0 0.00 0.22 0.00 83 1017.0
20260831132714 75 257 1.0 9.0 0.00 0.23 0.00 83 1017.1
20260831132151 75 281 0.0 1.0 0.00 0.24 0.00 84 1017.1
20260831131651 75 269 1.0 11.0 0.00 0.25 0.00 84 1017.1
20260831131149 74 272 0.0 2.0 0.00 0.26 0.00 84 1017.0
20260831130649 74 294 0.0 3.0 0.00 0.28 0.00 85 1017.0
20260831130148 74 249 0.0 0.0 0.00 0.29 0.00 86 1017.1
20260831125646 73 276 0.0 5.0 0.00 0.30 0.00 86 1017.1
20260831125145 73 279 0.0 0.0 0.00 0.31 0.00 86 1017.0
20260831124645 73 286 0.0 4.0 0.00 0.32 0.00 86 1017.0
20260831124144 73 289 0.0 0.0 0.00 0.33 0.00 86 1017.1
20260831123703 73 308 0.0 4.0 0.00 0.34 0.00 86 1017.1
20260831123142 73 227 0.0 0.0 0.00 0.34 0.00 86 1017.1
20260831122640 72 277 1.0 6.0 0.00 0.34 0.00 86 1017.0
20260831122139 72 267 0.0 4.0 0.00 0.34 0.00 86 1017.0
20260831121638 72 168 0.0 2.0 0.00 0.34 0.00 86 1016.9
20260831121158 72 288 0.0 4.0 0.00 0.34 0.00 86 1016.9
20260831120657 72 288 0.0 0.0 0.00 0.34 0.00 87 1016.9
20260831120135 72 300 0.0 2.0 0.00 0.35 0.00 87 1017.0
20260831115635 72 168 0.0 0.0 0.00 0.35 0.00 87 1017.0
20260831115133 72 306 0.0 0.0 0.00 0.35 0.00 87 1017.1
20260831114632 72 306 0.0 0.0 0.00 0.35 0.00 87 1017.1
20260831114131 72 307 0.0 4.0 0.00 0.35 0.00 87 1017.2
20260831113630 72 309 0.0 0.0 0.00 0.35 0.00 87 1017.2
20260831113129 72 307 0.0 1.0 0.00 0.35 0.00 87 1017.1
20260831112649 72 310 0.0 0.0 0.00 0.35 0.00 87 1017.1
20260831112127 72 273 0.0 2.0 0.00 0.35 0.00 87 1017.1
20260831111626 72 272 0.0 0.0 0.00 0.35 0.00 87 1017.1
20260831111146 72 299 0.0 4.0 0.00 0.35 0.00 87 1017.1
20260831110624 72 289 2.0 10.0 0.00 0.35 0.00 87 1017.1
20260831110124 72 298 1.0 11.0 0.00 0.35 0.00 87 1017.1
20260831105622 72 308 1.0 6.0 0.00 0.35 0.00 87 1017.1
20260831105142 72 297 1.0 7.0 0.00 0.35 0.00 87 1017.0
20260831104621 72 287 0.0 4.0 0.00 0.35 0.00 87 1016.9
20260831104119 72 289 2.0 11.0 0.00 0.35 0.00 87 1016.9
20260831103618 72 271 0.0 6.0 0.00 0.35 0.00 87 1017.0
20260831103117 72 279 2.0 8.0 0.00 0.35 0.00 87 1017.0
20260831102616 72 268 0.0 6.0 0.00 0.35 0.00 87 1017.0
20260831102116 72 276 0.0 0.0 0.00 0.35 0.00 87 1017.1
20260831101614 72 292 1.0 8.0 0.00 0.35 0.00 86 1017.1
20260831101134 72 295 1.0 6.0 0.00 0.35 0.00 86 1017.1
20260831100613 72 294 0.0 3.0 0.00 0.35 0.00 86 1017.0
20260831100111 72 301 0.0 4.0 0.00 0.35 0.00 86 1016.9
20260831095610 72 311 0.0 3.0 0.00 0.35 0.00 86 1016.8
20260831095109 72 288 1.0 6.0 0.00 0.36 0.00 86 1016.7
20260831094629 72 283 0.0 4.0 0.00 0.36 0.00 87 1016.8
20260831094107 72 283 0.0 3.0 0.00 0.37 0.00 87 1016.8
20260831093606 72 284 0.0 3.0 0.00 0.38 0.00 87 1016.8
20260831093105 72 301 0.0 4.0 0.00 0.38 0.00 86 1016.8
20260831092604 72 308 1.0 6.0 0.00 0.38 0.00 86 1016.9
20260831092124 72 286 0.0 3.0 0.00 0.38 0.00 86 1016.9
20260831091602 72 303 0.0 3.0 0.00 0.40 0.00 86 1016.9
20260831091101 72 284 0.0 0.0 0.00 0.40 0.00 86 1016.8
20260831090621 72 284 0.0 4.0 0.00 0.40 0.00 86 1016.8
20260831090059 72 278 0.0 6.0 0.00 0.40 0.00 87 1016.8
20260831085558 72 273 1.0 8.0 0.00 0.41 0.00 87 1016.9
20260831085057 72 275 0.0 3.0 0.00 0.41 0.00 87 1016.9
20260831084556 72 285 1.0 7.0 0.00 0.41 0.00 86 1016.9
20260831084055 72 283 0.0 0.0 0.00 0.41 0.00 87 1016.8
20260831083554 72 298 0.0 12.0 0.00 0.41 0.00 87 1016.8
20260831083114 71 294 2.0 9.0 0.00 0.41 0.00 87 1016.8
20260831082552 71 307 1.0 7.0 0.00 0.41 0.00 87 1016.7
20260831082112 71 293 0.0 5.0 0.00 0.41 0.00 87 1016.6
20260831081550 71 274 0.0 5.0 0.00 0.41 0.00 87 1016.6
20260831081048 71 286 1.0 8.0 0.00 0.41 0.00 87 1016.6
20260831080548 71 298 2.0 7.0 0.00 0.41 0.00 87 1016.7
20260831080047 71 271 2.0 8.0 0.00 0.41 0.00 88 1016.7
20260831075546 71 272 3.0 10.0 0.00 0.41 0.00 88 1016.7
20260831075106 70 289 0.0 7.0 0.00 0.41 0.00 89 1016.7
20260831074605 70 270 0.0 0.0 0.00 0.41 0.00 89 1016.8
20260831074043 70 257 0.0 5.0 0.00 0.41 0.00 89 1016.8
20260831073542 70 267 1.0 9.0 0.00 0.41 0.00 89 1016.9
20260831073101 70 278 0.0 0.0 0.00 0.41 0.00 90 1016.9
20260831072539 70 281 1.0 5.0 0.00 0.41 0.00 90 1017.1
20260831072039 70 286 0.0 0.0 0.00 0.41 0.00 90 1017.2
20260831071538 70 291 1.0 9.0 0.00 0.41 0.00 90 1017.2
20260831071058 70 289 2.0 8.0 0.00 0.41 0.00 91 1017.3
20260831070557 69 301 1.0 4.0 0.00 0.41 0.00 91 1017.3
20260831070034 69 278 0.0 3.0 0.00 0.41 0.00 92 1017.3
20260831065534 69 281 0.0 4.0 0.00 0.41 0.00 92 1017.3
20260831065033 69 253 0.0 0.0 0.00 0.41 0.00 92 1017.4
20260831064531 69 250 0.0 0.0 0.00 0.41 0.00 92 1017.5
20260831064031 69 266 0.0 3.0 0.00 0.41 0.00 92 1017.6
20260831063529 69 284 0.0 4.0 0.00 0.41 0.00 92 1017.7
20260831063028 69 291 0.0 2.0 0.00 0.41 0.00 92 1017.6
20260831062528 69 295 0.0 0.0 0.00 0.41 0.00 92 1017.6
20260831062047 69 295 0.0 0.0 0.00 0.42 0.00 91 1017.5
20260831061526 70 288 0.0 0.0 0.00 0.42 0.00 91 1017.5
20260831061024 70 298 0.0 0.0 0.00 0.42 0.00 91 1017.5
20260831060544 70 305 0.0 2.0 0.00 0.42 0.00 91 1017.5
20260831060023 70 285 0.0 3.0 0.00 0.42 0.00 91 1017.5
20260831055522 70 294 1.0 4.0 0.00 0.42 0.00 91 1017.5
20260831055021 70 272 1.0 10.0 0.00 0.42 0.00 91 1017.6
20260831054519 70 270 2.0 7.0 0.00 0.42 0.00 91 1017.5
20260831054018 70 226 0.0 5.0 0.00 0.42 0.00 91 1017.5
20260831053517 70 274 1.0 10.0 0.00 0.42 0.00 91 1017.7
20260831053017 70 285 1.0 4.0 0.00 0.42 0.00 91 1017.7
20260831052515 70 302 1.0 6.0 0.00 0.42 0.00 91 1017.8
20260831052014 70 282 0.0 3.0 0.00 0.42 0.00 90 1017.8
20260831051513 70 289 0.0 3.0 0.00 0.42 0.00 90 1017.8
20260831051012 70 287 0.0 0.0 0.00 0.42 0.00 90 1017.8
20260831050532 70 281 0.0 0.0 0.00 0.42 0.00 91 1017.7
20260831050010 70 281 0.0 4.0 0.00 0.42 0.00 91 1017.7
20260831045509 70 287 0.0 0.0 0.00 0.42 0.00 91 1017.7
20260831045008 70 265 0.0 3.0 0.00 0.42 0.00 91 1017.8
20260831044528 70 283 1.0 7.0 0.00 0.42 0.00 91 1017.8
20260831044007 70 290 0.0 2.0 0.00 0.42 0.00 91 1017.8